921  
ASUS45 KBOU 241610  
RWRCO  
 
WEATHER ROUNDUP FOR COLORADO  
NATIONAL WEATHER SERVICE DENVER/BOULDER CO  
900 AM MST MON FEB 24 2020  
 
NOTE: "FAIR" INDICATES FEW OR NO CLOUDS BELOW 12000 FEET WITH NO  
SIGNIFICANT WEATHER AND/OR S TO VISIBILITY
.  
 
COZ001>005-013-030-031-241700-   
..NORTHWEST COLORADO
 
 
 
CITY SKY/WX TMP DP RH WIND PRES REMARKS
 
CRAIG PTSUNNY 17 8 67 SW9 30.09R WCI 6  
HAYDEN PTSUNNY 22 12 65 W16 30.06R WCI 8  
MEEKER NOT AVBL  
RANGELY FAIR 30 9 42 W18G24 30.11R WCI 17  
RABBIT EARS PA CLOUDY 7 3 85 MISG 29.83F  
STEAMBOAT SPGS CLOUDY 19 11 73 W17G24 30.00S WCI 3  
WALDEN NOT AVBL  

 
 
COZ006>008-011-241700-   
..WEST CENTRAL VALLEYS
 
 
 
CITY SKY/WX TMP DP RH WIND PRES REMARKS
 
GRAND JUNCTION LGT RAIN 37 13 37 NW26G37 30.11R  
MONTROSE FLURRIES 32 25 75 NW31G44 30.12R WCI 17  
EAGLE LGT SNOW 26 16 65 NW12G26 30.03R WCI 16  
RIFLE CLOUDY 33 15 47 W12G26 30.09R WCI 24  
DELTA LGT SNOW 36 27 69 W18G24 30.07  
NUCLA FAIR 32 27 80 NW6 30.13R WCI 26  

 
 
COZ017>023-064>068-241700-   
..SOUTHWEST COLORADO
 
 
 
CITY SKY/WX TMP DP RH WIND PRES REMARKS
 
DURANGO FAIR 29 28 96 NE5 30.05S WCI 24  
CORTEZ FAIR 35 28 75 N3 30.09R  
PAGOSA SPRINGS CLOUDY 30 27 89 S6 30.04S WCI 24  
TELLURIDE CLOUDY 28 18 64 W15G21 30.06F WCI 17  
WOLF CREEK PAS SNOW 12 12 100 SW13G20 30.02S VSB 1/4 WCI -3  

 
 
COZ009-010-012-014-032>034-037-058>063-241700-   
..CENTRAL COLORADO
 
 
 
CITY SKY/WX TMP DP RH WIND PRES REMARKS
 
ASPEN FLURRIES 23 14 68 N26G43 29.94R WCI 6  
BUENA VISTA CLOUDY 32 20 60 SE8 29.82F WCI 25  
COPPER MTN HVY SNOW 12 7 79 MISG 29.82R VSB<1/4  
BERTHOUD PASS CLOUDY -2 -15 55 MISG 29.73R  
DAKOTA HILL CLOUDY 5 1 85 MISG 29.70F  
COTTONWOOD PAS CLOUDY 28 10 47 NW7G33 29.80F WCI 21  
GUNNISON LGT SNOW 30 19 64 W36G51 29.90F WCI 14  
GRANBY CLOUDY 19 7 60 SW10G17 29.93R WCI 7  
KREMMLING CLOUDY N/A N/A N/A NE7 29.99R  
LEADVILLE HVY SNOW 14 11 87 W21G33 29.86R VSB<1/4 WCI -4  
MONARCH PASS CLOUDY 14 10 85 SW40G55 29.88F WCI -9  
SALIDA CLOUDY 33 24 69 W21G40 29.92S WCI 21  
SUNLIGHT NOT AVBL  
WILKERSON PASS FAIR 18 9 68 SW10G22 29.81F WCI 6  

 
 
COZ069>075-241700-   
..SAN LUIS VALLEY/SANGRE DE CRISTO MOUNTAINS
 
 
 
CITY SKY/WX TMP DP RH WIND PRES REMARKS
 
ALAMOSA FAIR 29 19 66 S7 29.92F WCI 22  
DEL NORTE FAIR 30 14 51 S6 29.93F WCI 24  
LA VETA PASS FOG 19 18 93 W17G26 29.84F VSB 3/4 WCI 4  
SAGUACHE PTSUNNY 32 19 59 NW9 29.93S WCI 24  

 
 
COZ035-036-038>040-241700-   
..NORTHERN COLORADO FRONT RANGE
 
 
 
CITY SKY/WX TMP DP RH WIND PRES REMARKS
 
DENVER INTL AP PTSUNNY 32 26 78 N21G32 29.84R WCI 20  
AURORA PTSUNNY 37 19 48 W23G32 29.83R  
FRONT RANGE AP NOT AVBL  
ERIE MUNI ARPT PTSUNNY 34 26 74 N5 29.90R WCI 29  
BOULDER MUN AP PTSUNNY 36 19 51 W15 29.82R  
CENTENNIAL PTSUNNY 36 15 42 NW21G37 29.83R  
BROOMFIELD PTSUNNY 36 19 51 MISG 29.83R  
FORT COLLINS FAIR 33 23 66 NW25G38 29.85R WCI 20  
LONGMONT FAIR 37 30 76 E5 29.85F  

 
 
COZ041-046-047-076>085-087-088-241700-   
..PIKES PEAK/PALMER DIVIDE AND SOUTHERN FOOTHILLS
 
 
 
CITY SKY/WX TMP DP RH WIND PRES REMARKS
 
COLO. SPRINGS FAIR 35 20 54 SE10 29.82S WCI 27  
A. F. ACADEMY FAIR 40 10 28 NW6 29.78F  
SCHRIEVER AFB NOT AVBL  
CHEYENNE MTN FAIR 38 11 32 CALM 29.75F  
ELLICOTT FAIR 40 21 45 SW12 29.83S  
FALCON FAIR 40 11 29 NW8G23 29.82F  
FORT CARSON NOT AVBL  
LIMON CLOUDY 32 26 78 S3 29.80F  
MONUMENT HILL PTSUNNY 34 16 47 SW8 29.82R WCI 27  
CANON CITY FAIR 41 23 48 SW5 29.81F  
WALSENBURG NOT AVBL  
TRINIDAD FAIR 48 18 30 NW12G23 29.85S  

 
 
COZ042>045-048>051-090-091-241700-   
..NORTHEAST COLORADO
 
 
 
CITY SKY/WX TMP DP RH WIND PRES REMARKS
 
GREELEY ARPT FLURRIES 34 25 69 NW18G33 29.85S WCI 23  
AKRON CLOUDY 37 21 52 W12 29.78R  
BURLINGTON FAIR 40 32 73 SW14 29.82S  
WRAY FAIR 43 27 52 SW5 29.81S  
YUMA CLOUDY 39 21 48 SW12 29.78S  
STERLING CLOUDY 32 23 69 NE6 29.81R WCI 26  
HOLYOKE FAIR 41 27 56 SW10 29.80S  
FORT MORGAN CLOUDY 37 27 67 E40G51 29.83R  

 
 
COZ086-089-092>099-241700-   
..SOUTHEAST COLORADO
 
 
 
CITY SKY/WX TMP DP RH WIND PRES REMARKS
 
PUEBLO FAIR 36 27 69 S3 29.82F  
LA JUNTA FAIR 35 26 69 CALM 29.85S  
LAMAR PTSUNNY 34 32 92 NW5 29.84F WCI 30  
SPRINGFIELD N/A 35 31 85 SW3 29.85S  

 
 
 
CLICK HERE TO GO TO PREVIOUS BULLETINS.

The Nexlab CO Page Main Text Page